Year,Month,Day,Hour,Minute,Value (Times are PST for temperature in C)
2009,09,15,00,00,13.80
2009,09,15,00,01,13.80
2009,09,15,00,02,13.80
2009,09,15,00,03,13.80
2009,09,15,00,04,13.70
2009,09,15,00,05,13.70
2009,09,15,00,06,13.80
2009,09,15,00,07,13.80
2009,09,15,00,08,13.80
2009,09,15,00,09,13.80
2009,09,15,00,10,13.80
2009,09,15,00,11,13.80
2009,09,15,00,12,13.80
2009,09,15,00,13,13.80
2009,09,15,00,14,13.80
2009,09,15,00,15,13.80
2009,09,15,00,16,13.80
2009,09,15,00,17,13.80
2009,09,15,00,18,13.80
2009,09,15,00,19,13.80
2009,09,15,00,20,13.90
2009,09,15,00,21,13.90
2009,09,15,00,22,13.90
2009,09,15,00,23,13.90
2009,09,15,00,24,13.90
2009,09,15,00,25,13.90
2009,09,15,00,26,13.90
2009,09,15,00,27,14.00
2009,09,15,00,28,14.00
2009,09,15,00,29,14.00
2009,09,15,00,30,14.00
2009,09,15,00,31,14.00
2009,09,15,00,32,14.00
2009,09,15,00,33,14.00
2009,09,15,00,34,14.00
2009,09,15,00,35,14.00
2009,09,15,00,36,14.00
2009,09,15,00,37,14.00
2009,09,15,00,38,14.10
2009,09,15,00,39,14.10
2009,09,15,00,40,14.10
2009,09,15,00,41,14.10
2009,09,15,00,42,14.10
2009,09,15,00,43,14.00
2009,09,15,00,44,14.00
2009,09,15,00,45,14.00
2009,09,15,00,46,14.00
2009,09,15,00,47,14.00
2009,09,15,00,48,14.10
2009,09,15,00,49,14.10
2009,09,15,00,50,14.10
2009,09,15,00,51,14.10
2009,09,15,00,52,14.10
2009,09,15,00,53,14.10
2009,09,15,00,54,14.10
2009,09,15,00,55,14.10
2009,09,15,00,56,14.10
2009,09,15,00,57,14.10
2009,09,15,00,58,14.00
2009,09,15,00,59,14.00
2009,09,15,01,00,14.00
2009,09,15,01,01,14.00
2009,09,15,01,02,14.00
2009,09,15,01,03,14.00
2009,09,15,01,04,14.00
2009,09,15,01,05,14.10
2009,09,15,01,06,14.10
2009,09,15,01,07,14.10
2009,09,15,01,08,14.00
2009,09,15,01,09,14.00
2009,09,15,01,10,14.00
2009,09,15,01,11,13.90
2009,09,15,01,12,13.90
2009,09,15,01,13,13.80
2009,09,15,01,14,13.80
2009,09,15,01,15,13.70
2009,09,15,01,16,13.70
2009,09,15,01,17,13.70
2009,09,15,01,18,13.70
2009,09,15,01,19,13.70
2009,09,15,01,20,13.70
2009,09,15,01,21,13.70
2009,09,15,01,22,13.70
2009,09,15,01,23,13.60
2009,09,15,01,24,13.60
2009,09,15,01,25,13.60
2009,09,15,01,26,13.60
2009,09,15,01,27,13.60
2009,09,15,01,28,13.50
2009,09,15,01,29,13.50
2009,09,15,01,30,13.50
2009,09,15,01,31,13.50
2009,09,15,01,32,13.50
2009,09,15,01,33,13.50
2009,09,15,01,34,13.40
2009,09,15,01,35,13.40
2009,09,15,01,36,13.30
2009,09,15,01,37,13.30
2009,09,15,01,38,13.30
2009,09,15,01,39,13.30
2009,09,15,01,40,13.30
2009,09,15,01,41,13.30
2009,09,15,01,42,13.30
2009,09,15,01,43,13.30
2009,09,15,01,44,13.30
2009,09,15,01,45,13.20
2009,09,15,01,46,13.20
2009,09,15,01,47,13.20
2009,09,15,01,48,13.20
2009,09,15,01,49,13.20
2009,09,15,01,50,13.20
2009,09,15,01,51,13.20
2009,09,15,01,52,13.20
2009,09,15,01,53,13.20
2009,09,15,01,54,13.20
2009,09,15,01,55,13.20
2009,09,15,01,56,13.20
2009,09,15,01,57,13.20
2009,09,15,01,58,13.20
2009,09,15,01,59,13.20
2009,09,15,02,00,13.20
2009,09,15,02,01,13.20
2009,09,15,02,02,13.20
2009,09,15,02,03,13.20
2009,09,15,02,04,13.20
2009,09,15,02,05,13.20
2009,09,15,02,06,13.20
2009,09,15,02,07,13.20
2009,09,15,02,08,13.30
2009,09,15,02,09,13.30
2009,09,15,02,10,13.30
2009,09,15,02,11,13.20
2009,09,15,02,12,13.20
2009,09,15,02,13,13.20
2009,09,15,02,14,13.20
2009,09,15,02,15,13.20
2009,09,15,02,16,13.20
2009,09,15,02,17,13.20
2009,09,15,02,18,13.20
2009,09,15,02,19,13.20
2009,09,15,02,20,13.20
2009,09,15,02,21,13.10
2009,09,15,02,22,13.10
2009,09,15,02,23,13.10
2009,09,15,02,24,13.10
2009,09,15,02,25,13.10
2009,09,15,02,26,13.10
2009,09,15,02,27,13.00
2009,09,15,02,28,13.00
2009,09,15,02,29,13.00
2009,09,15,02,30,13.00
2009,09,15,02,31,13.00
2009,09,15,02,32,13.00
2009,09,15,02,33,13.00
2009,09,15,02,34,13.00
2009,09,15,02,35,13.00
2009,09,15,02,36,13.00
2009,09,15,02,37,13.00
2009,09,15,02,38,13.00
2009,09,15,02,39,13.00
2009,09,15,02,40,13.00
2009,09,15,02,41,13.00
2009,09,15,02,42,13.00
2009,09,15,02,43,13.10
2009,09,15,02,44,13.10
2009,09,15,02,45,13.10
2009,09,15,02,46,13.10
2009,09,15,02,47,13.10
2009,09,15,02,48,13.10
2009,09,15,02,49,13.10
2009,09,15,02,50,13.00
2009,09,15,02,51,13.00
2009,09,15,02,52,12.90
2009,09,15,02,53,12.90
2009,09,15,02,54,12.80
2009,09,15,02,55,12.80
2009,09,15,02,56,12.80
2009,09,15,02,57,12.80
2009,09,15,02,58,12.80
2009,09,15,02,59,12.80
2009,09,15,03,00,12.80
2009,09,15,03,01,12.80
2009,09,15,03,02,12.80
2009,09,15,03,03,12.80
2009,09,15,03,04,12.80
2009,09,15,03,05,12.80
2009,09,15,03,06,12.80
2009,09,15,03,07,12.80
2009,09,15,03,08,12.80
2009,09,15,03,09,12.80
2009,09,15,03,10,12.80
2009,09,15,03,11,12.80
2009,09,15,03,12,12.80
2009,09,15,03,13,12.80
2009,09,15,03,14,12.80
2009,09,15,03,15,12.80
2009,09,15,03,16,12.80
2009,09,15,03,17,12.80
2009,09,15,03,18,12.80
2009,09,15,03,19,12.80
2009,09,15,03,20,12.80
2009,09,15,03,21,12.80
2009,09,15,03,22,12.70
2009,09,15,03,23,12.70
2009,09,15,03,24,12.70
2009,09,15,03,25,12.70
2009,09,15,03,26,12.70
2009,09,15,03,27,12.70
2009,09,15,03,28,12.70
2009,09,15,03,29,12.70
2009,09,15,03,30,12.70
2009,09,15,03,31,12.70
2009,09,15,03,32,12.70
2009,09,15,03,33,12.70
2009,09,15,03,34,12.70
2009,09,15,03,35,12.70
2009,09,15,03,36,12.70
2009,09,15,03,37,12.70
2009,09,15,03,38,12.70
2009,09,15,03,39,12.70
2009,09,15,03,40,12.70
2009,09,15,03,41,12.70
2009,09,15,03,42,12.70
2009,09,15,03,43,12.70
2009,09,15,03,44,12.70
2009,09,15,03,45,12.60
2009,09,15,03,46,12.60
2009,09,15,03,47,12.60
2009,09,15,03,48,12.60
2009,09,15,03,49,12.60
2009,09,15,03,50,12.60
2009,09,15,03,51,12.60
2009,09,15,03,52,12.70
2009,09,15,03,53,12.70
2009,09,15,03,54,12.70
2009,09,15,03,55,12.70
2009,09,15,03,56,12.70
2009,09,15,03,57,12.70
2009,09,15,03,58,12.70
2009,09,15,03,59,12.70
2009,09,15,04,00,12.80
2009,09,15,04,01,12.80
2009,09,15,04,02,12.80
2009,09,15,04,03,12.80
2009,09,15,04,04,12.90
2009,09,15,04,05,12.90
2009,09,15,04,06,13.00
2009,09,15,04,07,13.00
2009,09,15,04,08,13.10
2009,09,15,04,09,13.10
2009,09,15,04,10,13.10
2009,09,15,04,11,13.20
2009,09,15,04,12,13.20
2009,09,15,04,13,13.20
2009,09,15,04,14,13.30
2009,09,15,04,15,13.30
2009,09,15,04,16,13.30
2009,09,15,04,17,13.30
2009,09,15,04,18,13.30
2009,09,15,04,19,13.30
2009,09,15,04,20,13.30
2009,09,15,04,21,13.30
2009,09,15,04,22,13.40
2009,09,15,04,23,13.40
2009,09,15,04,24,13.40
2009,09,15,04,25,13.50
2009,09,15,04,26,13.50
2009,09,15,04,27,13.50
2009,09,15,04,28,13.50
2009,09,15,04,29,13.60
2009,09,15,04,30,13.60
2009,09,15,04,31,13.60
2009,09,15,04,32,13.60
2009,09,15,04,33,13.60
2009,09,15,04,34,13.60
2009,09,15,04,35,13.60
2009,09,15,04,36,13.60
2009,09,15,04,37,13.60
2009,09,15,04,38,13.60
2009,09,15,04,39,13.60
2009,09,15,04,40,13.60
2009,09,15,04,41,13.60
2009,09,15,04,42,13.60
2009,09,15,04,43,13.60
2009,09,15,04,44,13.60
2009,09,15,04,45,13.60
2009,09,15,04,46,13.60
2009,09,15,04,47,13.60
2009,09,15,04,48,13.60
2009,09,15,04,49,13.60
2009,09,15,04,50,13.60
2009,09,15,04,51,13.70
2009,09,15,04,52,13.70
2009,09,15,04,53,13.70
2009,09,15,04,54,13.70
2009,09,15,04,55,13.70
2009,09,15,04,56,13.70
2009,09,15,04,57,13.70
2009,09,15,04,58,13.70
2009,09,15,04,59,13.70
2009,09,15,05,00,13.70
2009,09,15,05,01,13.70
2009,09,15,05,02,13.70
2009,09,15,05,03,13.70
2009,09,15,05,04,13.70
2009,09,15,05,05,13.70
2009,09,15,05,06,13.70
2009,09,15,05,07,13.70
2009,09,15,05,08,13.70
2009,09,15,05,09,13.70
2009,09,15,05,10,13.70
2009,09,15,05,11,13.60
2009,09,15,05,12,13.60
2009,09,15,05,13,13.60
2009,09,15,05,14,13.50
2009,09,15,05,15,13.50
2009,09,15,05,16,13.50
2009,09,15,05,17,13.40
2009,09,15,05,18,13.40
2009,09,15,05,19,13.40
2009,09,15,05,20,13.30
2009,09,15,05,21,13.30
2009,09,15,05,22,13.30
2009,09,15,05,23,13.30
2009,09,15,05,24,13.30
2009,09,15,05,25,13.30
2009,09,15,05,26,13.30
2009,09,15,05,27,13.30
2009,09,15,05,28,13.30
2009,09,15,05,29,13.30
2009,09,15,05,30,13.20
2009,09,15,05,31,13.20
2009,09,15,05,32,13.20
2009,09,15,05,33,13.20
2009,09,15,05,34,13.10
2009,09,15,05,35,13.10
2009,09,15,05,36,13.10
2009,09,15,05,37,13.10
2009,09,15,05,38,13.00
2009,09,15,05,39,13.00
2009,09,15,05,40,13.00
2009,09,15,05,41,13.00
2009,09,15,05,42,13.00
2009,09,15,05,43,13.00
2009,09,15,05,44,13.00
2009,09,15,05,45,12.90
2009,09,15,05,46,12.90
2009,09,15,05,47,12.90
2009,09,15,05,48,12.90
2009,09,15,05,49,12.90
2009,09,15,05,50,12.80
2009,09,15,05,51,12.80
2009,09,15,05,52,12.80
2009,09,15,05,53,12.80
2009,09,15,05,54,12.80
2009,09,15,05,55,12.80
2009,09,15,05,56,12.80
2009,09,15,05,57,12.80
2009,09,15,05,58,12.80
2009,09,15,05,59,12.80
2009,09,15,06,00,12.80
2009,09,15,06,01,12.80
2009,09,15,06,02,12.80
2009,09,15,06,03,12.80
2009,09,15,06,04,12.70
2009,09,15,06,05,12.70
2009,09,15,06,06,12.70
2009,09,15,06,07,12.60
2009,09,15,06,08,12.60
2009,09,15,06,09,12.60
2009,09,15,06,10,12.70
2009,09,15,06,11,12.70
2009,09,15,06,12,12.70
2009,09,15,06,13,12.70
2009,09,15,06,14,12.70
2009,09,15,06,15,12.70
2009,09,15,06,16,12.60
2009,09,15,06,17,12.60
2009,09,15,06,18,12.60
2009,09,15,06,19,12.70
2009,09,15,06,20,12.70
2009,09,15,06,21,12.70
2009,09,15,06,22,12.70
2009,09,15,06,23,12.70
2009,09,15,06,24,12.70
2009,09,15,06,25,12.70
2009,09,15,06,26,12.70
2009,09,15,06,27,12.70
2009,09,15,06,28,12.70
2009,09,15,06,29,12.70
2009,09,15,06,30,12.60
2009,09,15,06,31,12.60
2009,09,15,06,32,12.60
2009,09,15,06,33,12.60
2009,09,15,06,34,12.60
2009,09,15,06,35,12.60
2009,09,15,06,36,12.60
2009,09,15,06,37,12.60
2009,09,15,06,38,12.60
2009,09,15,06,39,12.60
2009,09,15,06,40,12.60
2009,09,15,06,41,12.60
2009,09,15,06,42,12.60
2009,09,15,06,43,12.60
2009,09,15,06,44,12.60
2009,09,15,06,45,12.60
2009,09,15,06,46,12.60
2009,09,15,06,47,12.60
2009,09,15,06,48,12.60
2009,09,15,06,49,12.60
2009,09,15,06,50,12.60
2009,09,15,06,51,12.60
2009,09,15,06,52,12.70
2009,09,15,06,53,12.70
2009,09,15,06,54,12.70
2009,09,15,06,55,12.70
2009,09,15,06,56,12.70
2009,09,15,06,57,12.70
2009,09,15,06,58,12.70
2009,09,15,06,59,12.70
2009,09,15,07,00,12.70
2009,09,15,07,01,12.70
2009,09,15,07,02,12.80
2009,09,15,07,03,12.90
2009,09,15,07,04,13.10
2009,09,15,07,05,13.20
2009,09,15,07,06,13.30
2009,09,15,07,07,13.50
2009,09,15,07,08,13.60
2009,09,15,07,09,13.70
2009,09,15,07,10,13.90
2009,09,15,07,11,14.00
2009,09,15,07,12,14.10
2009,09,15,07,13,14.20
2009,09,15,07,14,14.20
2009,09,15,07,15,14.20
2009,09,15,07,16,14.30
2009,09,15,07,17,14.40
2009,09,15,07,18,14.40
2009,09,15,07,19,14.50
2009,09,15,07,20,14.50
2009,09,15,07,21,14.50
2009,09,15,07,22,14.50
2009,09,15,07,23,14.50
2009,09,15,07,24,14.50
2009,09,15,07,25,14.60
2009,09,15,07,26,14.60
2009,09,15,07,27,14.60
2009,09,15,07,28,14.70
2009,09,15,07,29,14.70
2009,09,15,07,30,14.70
2009,09,15,07,31,14.70
2009,09,15,07,32,14.70
2009,09,15,07,33,14.70
2009,09,15,07,34,14.70
2009,09,15,07,35,14.70
2009,09,15,07,36,14.70
2009,09,15,07,37,14.70
2009,09,15,07,38,14.70
2009,09,15,07,39,14.80
2009,09,15,07,40,14.80
2009,09,15,07,41,14.80
2009,09,15,07,42,14.80
2009,09,15,07,43,14.80
2009,09,15,07,44,14.80
2009,09,15,07,45,14.80
2009,09,15,07,46,14.80
2009,09,15,07,47,14.80
2009,09,15,07,48,14.80
2009,09,15,07,49,14.80
2009,09,15,07,50,14.80
2009,09,15,07,51,14.80
2009,09,15,07,52,14.80
2009,09,15,07,53,14.80
2009,09,15,07,54,14.90
2009,09,15,07,55,14.90
2009,09,15,07,56,14.90
2009,09,15,07,57,14.90
2009,09,15,07,58,14.90
2009,09,15,07,59,15.00
2009,09,15,08,00,15.00
2009,09,15,08,01,15.00
2009,09,15,08,02,15.00
2009,09,15,08,03,15.00
2009,09,15,08,04,15.00
2009,09,15,08,05,15.10
2009,09,15,08,06,15.10
2009,09,15,08,07,15.10
2009,09,15,08,08,15.10
2009,09,15,08,09,15.10
2009,09,15,08,10,15.20
2009,09,15,08,11,15.20
2009,09,15,08,12,15.20
2009,09,15,08,13,15.10
2009,09,15,08,14,15.10
2009,09,15,08,15,15.10
2009,09,15,08,16,15.00
2009,09,15,08,17,15.00
2009,09,15,08,18,15.00
2009,09,15,08,19,14.90
2009,09,15,08,20,14.90
2009,09,15,08,21,14.90
2009,09,15,08,22,14.80
2009,09,15,08,23,14.80
2009,09,15,08,24,14.80
2009,09,15,08,25,14.80
2009,09,15,08,26,14.80
2009,09,15,08,27,14.80
2009,09,15,08,28,14.80
2009,09,15,08,29,14.80
2009,09,15,08,30,14.80
2009,09,15,08,31,14.80
2009,09,15,08,32,14.80
2009,09,15,08,33,14.80
2009,09,15,08,34,14.80
2009,09,15,08,35,14.70
2009,09,15,08,36,14.80
2009,09,15,08,37,14.80
2009,09,15,08,38,14.80
2009,09,15,08,39,14.80
2009,09,15,08,40,14.80
2009,09,15,08,41,14.80
2009,09,15,08,42,14.80
2009,09,15,08,43,14.80
2009,09,15,08,44,14.80
2009,09,15,08,45,14.80
2009,09,15,08,46,14.80
2009,09,15,08,47,14.80
2009,09,15,08,48,14.80
2009,09,15,08,49,14.80
2009,09,15,08,50,14.80
2009,09,15,08,51,14.80
2009,09,15,08,52,14.80
2009,09,15,08,53,14.80
2009,09,15,08,54,14.80
2009,09,15,08,55,14.80
2009,09,15,08,56,14.80
2009,09,15,08,57,14.80
2009,09,15,08,58,14.80
2009,09,15,08,59,14.80
2009,09,15,09,00,14.80
2009,09,15,09,01,14.80
2009,09,15,09,02,14.80
2009,09,15,09,03,14.80
2009,09,15,09,04,14.80
2009,09,15,09,05,14.80
2009,09,15,09,06,14.80
2009,09,15,09,07,14.80
2009,09,15,09,08,14.80
2009,09,15,09,09,14.80
2009,09,15,09,10,14.90
2009,09,15,09,11,14.90
2009,09,15,09,12,14.90
2009,09,15,09,13,14.90
2009,09,15,09,14,14.90
2009,09,15,09,15,14.90
2009,09,15,09,16,14.90
2009,09,15,09,17,14.90
2009,09,15,09,18,15.00
2009,09,15,09,19,15.00
2009,09,15,09,20,15.10
2009,09,15,09,21,15.10
2009,09,15,09,22,15.10
2009,09,15,09,23,15.20
2009,09,15,09,24,15.20
2009,09,15,09,25,15.30
2009,09,15,09,26,15.30
2009,09,15,09,27,15.20
2009,09,15,09,28,15.20
2009,09,15,09,29,15.30
2009,09,15,09,30,15.30
2009,09,15,09,31,15.30
2009,09,15,09,32,15.30
2009,09,15,09,33,15.40
2009,09,15,09,34,15.40
2009,09,15,09,35,15.50
2009,09,15,09,36,15.50
2009,09,15,09,37,15.50
2009,09,15,09,38,15.50
2009,09,15,09,39,15.60
2009,09,15,09,40,15.50
2009,09,15,09,41,15.50
2009,09,15,09,42,15.30
2009,09,15,09,43,15.30
2009,09,15,09,44,15.30
2009,09,15,09,45,15.30
2009,09,15,09,46,15.30
2009,09,15,09,47,15.30
2009,09,15,09,48,15.20
2009,09,15,09,49,15.20
2009,09,15,09,50,15.10
2009,09,15,09,51,15.00
2009,09,15,09,52,15.00
2009,09,15,09,53,15.10
2009,09,15,09,54,15.20
2009,09,15,09,55,15.20
2009,09,15,09,56,15.30
2009,09,15,09,57,15.30
2009,09,15,09,58,15.30
2009,09,15,09,59,15.30
2009,09,15,10,00,15.20
2009,09,15,10,01,15.20
2009,09,15,10,02,15.20
2009,09,15,10,03,15.20
2009,09,15,10,04,15.20
2009,09,15,10,05,15.30
2009,09,15,10,06,15.30
2009,09,15,10,07,15.30
2009,09,15,10,08,15.30
2009,09,15,10,09,15.30
2009,09,15,10,10,15.30
2009,09,15,10,11,15.20
2009,09,15,10,12,15.10
2009,09,15,10,13,15.10
2009,09,15,10,14,15.10
2009,09,15,10,15,15.20
2009,09,15,10,16,15.20
2009,09,15,10,17,15.20
2009,09,15,10,18,15.20
2009,09,15,10,19,15.20
2009,09,15,10,20,15.20
2009,09,15,10,21,15.20
2009,09,15,10,22,15.20
2009,09,15,10,23,15.20
2009,09,15,10,24,15.20
2009,09,15,10,25,15.30
2009,09,15,10,26,15.30
2009,09,15,10,27,15.30
2009,09,15,10,28,15.30
2009,09,15,10,29,15.50
2009,09,15,10,30,15.60
2009,09,15,10,31,15.60
2009,09,15,10,32,15.80
2009,09,15,10,33,15.80
2009,09,15,10,34,15.80
2009,09,15,10,35,15.80
2009,09,15,10,36,15.60
2009,09,15,10,37,15.50
2009,09,15,10,38,15.60
2009,09,15,10,39,15.60
2009,09,15,10,40,15.70
2009,09,15,10,41,15.70
2009,09,15,10,42,15.70
2009,09,15,10,43,15.70
2009,09,15,10,44,15.60
2009,09,15,10,45,15.50
2009,09,15,10,46,15.50
2009,09,15,10,47,15.50
2009,09,15,10,48,15.60
2009,09,15,10,49,15.60
2009,09,15,10,50,15.70
2009,09,15,10,51,15.80
2009,09,15,10,52,15.70
2009,09,15,10,53,15.70
2009,09,15,10,54,15.60
2009,09,15,10,55,15.50
2009,09,15,10,56,15.60
2009,09,15,10,57,15.60
2009,09,15,10,58,15.60
2009,09,15,10,59,15.60
2009,09,15,11,00,15.60
2009,09,15,11,01,15.70
2009,09,15,11,02,15.80
2009,09,15,11,03,15.80
2009,09,15,11,04,15.80
2009,09,15,11,05,16.00
2009,09,15,11,06,16.10
2009,09,15,11,07,16.20
2009,09,15,11,08,16.30
2009,09,15,11,09,16.40
2009,09,15,11,10,16.40
2009,09,15,11,11,16.40
2009,09,15,11,12,16.30
2009,09,15,11,13,16.20
2009,09,15,11,14,16.20
2009,09,15,11,15,16.30
2009,09,15,11,16,16.30
2009,09,15,11,17,16.20
2009,09,15,11,18,16.20
2009,09,15,11,19,16.20
2009,09,15,11,20,16.10
2009,09,15,11,21,16.10
2009,09,15,11,22,16.10
2009,09,15,11,23,16.10
2009,09,15,11,24,16.10
2009,09,15,11,25,16.10
2009,09,15,11,26,16.10
2009,09,15,11,27,16.10
2009,09,15,11,28,16.10
2009,09,15,11,29,16.10
2009,09,15,11,30,16.10
2009,09,15,11,31,16.10
2009,09,15,11,32,16.10
2009,09,15,11,33,15.90
2009,09,15,11,34,15.90
2009,09,15,11,35,15.90
2009,09,15,11,36,15.90
2009,09,15,11,37,15.90
2009,09,15,11,38,15.90
2009,09,15,11,39,15.80
2009,09,15,11,40,15.80
2009,09,15,11,41,15.80
2009,09,15,11,42,15.80
2009,09,15,11,43,15.90
2009,09,15,11,44,15.90
2009,09,15,11,45,15.80
2009,09,15,11,46,15.90
2009,09,15,11,47,15.90
2009,09,15,11,48,15.90
2009,09,15,11,49,16.00
2009,09,15,11,50,16.10
2009,09,15,11,51,16.20
2009,09,15,11,52,16.30
2009,09,15,11,53,16.40
2009,09,15,11,54,16.60
2009,09,15,11,55,16.80
2009,09,15,11,56,16.90
2009,09,15,11,57,17.10
2009,09,15,11,58,17.10
2009,09,15,11,59,17.10
2009,09,15,12,00,17.00
2009,09,15,12,01,17.00
2009,09,15,12,02,17.00
2009,09,15,12,03,17.10
2009,09,15,12,04,17.10
2009,09,15,12,05,17.00
2009,09,15,12,06,17.00
2009,09,15,12,07,17.00
2009,09,15,12,08,17.10
2009,09,15,12,09,17.10
2009,09,15,12,10,17.30
2009,09,15,12,11,17.30
2009,09,15,12,12,17.30
2009,09,15,12,13,17.40
2009,09,15,12,14,17.50
2009,09,15,12,15,17.60
2009,09,15,12,16,17.70
2009,09,15,12,17,17.80
2009,09,15,12,18,17.90
2009,09,15,12,19,18.10
2009,09,15,12,20,18.10
2009,09,15,12,21,18.10
2009,09,15,12,22,18.20
2009,09,15,12,23,18.20
2009,09,15,12,24,18.30
2009,09,15,12,25,18.40
2009,09,15,12,26,18.50
2009,09,15,12,27,18.60
2009,09,15,12,28,18.60
2009,09,15,12,29,18.70
2009,09,15,12,30,18.70
2009,09,15,12,31,18.60
2009,09,15,12,32,18.60
2009,09,15,12,33,18.60
2009,09,15,12,34,18.70
2009,09,15,12,35,18.70
2009,09,15,12,36,18.70
2009,09,15,12,37,18.80
2009,09,15,12,38,18.80
2009,09,15,12,39,18.80
2009,09,15,12,40,18.80
2009,09,15,12,41,18.90
2009,09,15,12,42,19.00
2009,09,15,12,43,19.10
2009,09,15,12,44,19.20
2009,09,15,12,45,19.30
2009,09,15,12,46,19.30
2009,09,15,12,47,19.40
2009,09,15,12,48,19.40
2009,09,15,12,49,19.20
2009,09,15,12,50,19.10
2009,09,15,12,51,19.00
2009,09,15,12,52,18.90
2009,09,15,12,53,18.70
2009,09,15,12,54,18.60
2009,09,15,12,55,18.50
2009,09,15,12,56,18.50
2009,09,15,12,57,18.60
2009,09,15,12,58,18.60
2009,09,15,12,59,18.60
2009,09,15,13,00,18.60
2009,09,15,13,01,18.70
2009,09,15,13,02,18.70
2009,09,15,13,03,18.70
2009,09,15,13,04,18.80
2009,09,15,13,05,18.80
2009,09,15,13,06,18.70
2009,09,15,13,07,18.80
2009,09,15,13,08,18.80
2009,09,15,13,09,18.80
2009,09,15,13,10,18.80
2009,09,15,13,11,18.90
2009,09,15,13,12,18.90
2009,09,15,13,13,19.00
2009,09,15,13,14,19.10
2009,09,15,13,15,19.30
2009,09,15,13,16,19.30
2009,09,15,13,17,19.40
2009,09,15,13,18,19.40
2009,09,15,13,19,19.50
2009,09,15,13,20,19.60
2009,09,15,13,21,19.70
2009,09,15,13,22,19.80
2009,09,15,13,23,20.00
2009,09,15,13,24,20.10
2009,09,15,13,25,20.10
2009,09,15,13,26,20.20
2009,09,15,13,27,20.10
2009,09,15,13,28,20.10
2009,09,15,13,29,20.20
2009,09,15,13,30,20.20
2009,09,15,13,31,20.20
2009,09,15,13,32,20.20
2009,09,15,13,33,20.30
2009,09,15,13,34,20.20
2009,09,15,13,35,20.20
2009,09,15,13,36,20.20
2009,09,15,13,37,20.20
2009,09,15,13,38,20.10
2009,09,15,13,39,20.10
2009,09,15,13,40,20.10
2009,09,15,13,41,20.20
2009,09,15,13,42,20.20
2009,09,15,13,43,20.20
2009,09,15,13,44,20.10
2009,09,15,13,45,20.00
2009,09,15,13,46,19.90
2009,09,15,13,47,19.90
2009,09,15,13,48,19.80
2009,09,15,13,49,19.70
2009,09,15,13,50,19.70
2009,09,15,13,51,19.70
2009,09,15,13,52,19.70
2009,09,15,13,53,19.60
2009,09,15,13,54,19.60
2009,09,15,13,55,19.60
2009,09,15,13,56,19.70
2009,09,15,13,57,19.70
2009,09,15,13,58,19.70
2009,09,15,13,59,19.80
2009,09,15,14,00,19.80
2009,09,15,14,01,19.90
2009,09,15,14,02,20.00
2009,09,15,14,03,20.10
2009,09,15,14,04,20.20
2009,09,15,14,05,20.30
2009,09,15,14,06,20.30
2009,09,15,14,07,20.40
2009,09,15,14,08,20.50
2009,09,15,14,09,20.60
2009,09,15,14,10,20.70
2009,09,15,14,11,20.70
2009,09,15,14,12,20.70
2009,09,15,14,13,20.70
2009,09,15,14,14,20.70
2009,09,15,14,15,20.50
2009,09,15,14,16,20.50
2009,09,15,14,17,20.30
2009,09,15,14,18,20.20
2009,09,15,14,19,20.20
2009,09,15,14,20,20.10
2009,09,15,14,21,20.00
2009,09,15,14,22,19.90
2009,09,15,14,23,19.90
2009,09,15,14,24,19.90
2009,09,15,14,25,19.90
2009,09,15,14,26,19.80
2009,09,15,14,27,19.80
2009,09,15,14,28,19.80
2009,09,15,14,29,19.90
2009,09,15,14,30,19.90
2009,09,15,14,31,19.90
2009,09,15,14,32,19.90
2009,09,15,14,33,20.00
2009,09,15,14,34,20.10
2009,09,15,14,35,20.20
2009,09,15,14,36,20.30
2009,09,15,14,37,20.40
2009,09,15,14,38,20.50
2009,09,15,14,39,20.70
2009,09,15,14,40,20.70
2009,09,15,14,41,20.80
2009,09,15,14,42,20.90
2009,09,15,14,43,21.00
2009,09,15,14,44,21.10
2009,09,15,14,45,21.20
2009,09,15,14,46,21.20
2009,09,15,14,47,21.30
2009,09,15,14,48,21.30
2009,09,15,14,49,21.30
2009,09,15,14,50,21.40
2009,09,15,14,51,21.40
2009,09,15,14,52,21.40
2009,09,15,14,53,21.50
2009,09,15,14,54,21.60
2009,09,15,14,55,21.60
2009,09,15,14,56,21.70
2009,09,15,14,57,21.80
2009,09,15,14,58,21.80
2009,09,15,14,59,21.80
2009,09,15,15,00,21.80
2009,09,15,15,01,21.70
2009,09,15,15,02,21.70
2009,09,15,15,03,21.60
2009,09,15,15,04,21.40
2009,09,15,15,05,21.30
2009,09,15,15,06,21.20
2009,09,15,15,07,21.10
2009,09,15,15,08,21.10
2009,09,15,15,09,21.10
2009,09,15,15,10,21.10
2009,09,15,15,11,21.10
2009,09,15,15,12,21.20
2009,09,15,15,13,21.20
2009,09,15,15,14,21.30
2009,09,15,15,15,21.20
2009,09,15,15,16,21.20
2009,09,15,15,17,21.20
2009,09,15,15,18,21.20
2009,09,15,15,19,21.20
2009,09,15,15,20,21.30
2009,09,15,15,21,21.30
2009,09,15,15,22,21.30
2009,09,15,15,23,21.40
2009,09,15,15,24,21.40
2009,09,15,15,25,21.40
2009,09,15,15,26,21.40
2009,09,15,15,27,21.30
2009,09,15,15,28,21.30
2009,09,15,15,29,21.30
2009,09,15,15,30,21.20
2009,09,15,15,31,21.10
2009,09,15,15,32,21.10
2009,09,15,15,33,21.20
2009,09,15,15,34,21.20
2009,09,15,15,35,21.20
2009,09,15,15,36,21.20
2009,09,15,15,37,21.30
2009,09,15,15,38,21.30
2009,09,15,15,39,21.30
2009,09,15,15,40,21.30
2009,09,15,15,41,21.30
2009,09,15,15,42,21.30
2009,09,15,15,43,21.30
2009,09,15,15,44,21.30
2009,09,15,15,45,21.30
2009,09,15,15,46,21.30
2009,09,15,15,47,21.30
2009,09,15,15,48,21.30
2009,09,15,15,49,21.40
2009,09,15,15,50,21.50
2009,09,15,15,51,21.60
2009,09,15,15,52,21.60
2009,09,15,15,53,21.60
2009,09,15,15,54,21.50
2009,09,15,15,55,21.40
2009,09,15,15,56,21.40
2009,09,15,15,57,21.40
2009,09,15,15,58,21.50
2009,09,15,15,59,21.60
2009,09,15,16,00,21.60
2009,09,15,16,01,21.60
2009,09,15,16,02,21.60
2009,09,15,16,03,21.60
2009,09,15,16,04,21.60
2009,09,15,16,05,21.60
2009,09,15,16,06,21.60
2009,09,15,16,07,21.50
2009,09,15,16,08,21.40
2009,09,15,16,09,21.30
2009,09,15,16,10,21.30
2009,09,15,16,11,21.20
2009,09,15,16,12,21.20
2009,09,15,16,13,21.20
2009,09,15,16,14,21.20
2009,09,15,16,15,21.20
2009,09,15,16,16,21.20
2009,09,15,16,17,21.10
2009,09,15,16,18,21.10
2009,09,15,16,19,21.10
2009,09,15,16,20,21.10
2009,09,15,16,21,21.10
2009,09,15,16,22,21.10
2009,09,15,16,23,21.10
2009,09,15,16,24,21.20
2009,09,15,16,25,21.20
2009,09,15,16,26,21.20
2009,09,15,16,27,21.20
2009,09,15,16,28,21.20
2009,09,15,16,29,21.30
2009,09,15,16,30,21.30
2009,09,15,16,31,21.40
2009,09,15,16,32,21.40
2009,09,15,16,33,21.30
2009,09,15,16,34,21.30
2009,09,15,16,35,21.30
2009,09,15,16,36,21.30
2009,09,15,16,37,21.30
2009,09,15,16,38,21.30
2009,09,15,16,39,21.30
2009,09,15,16,40,21.20
2009,09,15,16,41,21.20
2009,09,15,16,42,21.20
2009,09,15,16,43,21.30
2009,09,15,16,44,21.20
2009,09,15,16,45,21.20
2009,09,15,16,46,21.10
2009,09,15,16,47,21.00
2009,09,15,16,48,21.00
2009,09,15,16,49,21.00
2009,09,15,16,50,21.00
2009,09,15,16,51,21.10
2009,09,15,16,52,21.10
2009,09,15,16,53,21.20
2009,09,15,16,54,21.30
2009,09,15,16,55,21.30
2009,09,15,16,56,21.30
2009,09,15,16,57,21.30
2009,09,15,16,58,21.30
2009,09,15,16,59,21.40
2009,09,15,17,00,21.50
2009,09,15,17,01,21.60
2009,09,15,17,02,21.50
2009,09,15,17,03,21.40
2009,09,15,17,04,21.30
2009,09,15,17,05,21.30
2009,09,15,17,06,21.30
2009,09,15,17,07,21.30
2009,09,15,17,08,21.20
2009,09,15,17,09,21.10
2009,09,15,17,10,21.10
2009,09,15,17,11,21.10
2009,09,15,17,12,21.10
2009,09,15,17,13,21.10
2009,09,15,17,14,21.10
2009,09,15,17,15,21.10
2009,09,15,17,16,21.10
2009,09,15,17,17,21.10
2009,09,15,17,18,21.20
2009,09,15,17,19,21.20